Wind_Speed
45 45 42 37 33 30 28 27 25 20 24 23 16 14 17 14 14 17 17 15 19 16 20 12 15 14 17 19 19 19 17 16 16 16 14 14 13 13 13 12 12 11 12 13 15 15 15 17 19
46 45 44 42 38 32 34 32 27 24 25 30 23 17 15 13 17 14 16 17 21 20 16 13 18 14 16 22 24 22 21 20 20 20 21 22 21 21 18 17 16 17 17 18 19 21 22 23 24
52 50 47 43 42 38 39 36 32 29 28 28 26 25 21 23 16 19 21 24 25 20 20 18 20 22 19 22 27 26 24 22 20 18 18 20 24 27 26 24 24 24 24 24 25 25 26 27 28
54 54 51 48 45 42 42 41 38 36 32 28 32 31 30 26 26 22 27 31 32 33 28 22 26 26 25 24 21 25 25 24 23 23 25 25 25 26 30 30 30 28 27 26 27 29 29 30 32
53 56 57 54 50 49 47 45 46 43 38 34 31 33 27 26 31 34 27 31 35 34 34 33 32 30 26 26 25 28 26 29 30 29 27 30 31 28 28 30 30 29 30 32 32 31 34 36 37
55 59 60 61 53 53 52 49 49 50 47 42 42 40 37 32 32 38 32 38 41 37 35 33 34 35 37 32 34 33 34 34 36 34 32 34 34 35 33 33 33 35 36 37 39 38 39 40 39
54 58 60 59 59 58 59 56 55 53 52 49 47 43 38 32 32 34 36 41 38 36 35 36 39 41 37 36 37 41 43 44 42 40 40 39 39 40 40 39 39 40 41 42 43 44 46 46 46
55 58 61 66 68 58 57 58 58 56 54 55 54 48 44 42 26 27 25 25 21 27 36 38 38 35 30 35 37 35 41 46 47 46 45 43 42 44 44 44 42 43 43 46 48 51 52 53 53
50 54 59 64 68 68 63 67 61 59 57 59 56 54 52 48 49 43 46 40 39 43 39 44 40 39 44 47 47 48 48 47 46 46 48 49 49 47 48 48 48 48 51 55 55 54 53 54 53
53 56 59 63 66 70 67 63 67 65 61 60 63 60 57 59 56 56 59 57 50 54 46 39 39 43 42 43 46 48 49 49 51 52 51 51 51 51 52 53 53 55 57 58 57 56 56 57 57
55 60 63 66 71 70 66 67 68 72 72 68 69 70 64 64 61 61 70 68 66 52 49 51 46 44 44 44 45 48 48 47 50 53 55 56 55 56 56 58 58 59 61 61 61 61 61 62 63
56 62 66 72 72 73 73 66 69 72 74 71 77 73 72 73 70 68 70 69 68 67 65 63 60 54 56 50 44 50 52 51 50 53 53 54 55 56 58 59 60 63 66 66 66 65 65 64 65
55 61 65 72 74 77 81 75 72 74 77 77 78 81 80 80 74 72 73 73 75 73 74 71 67 64 55 52 54 58 60 58 60 59 61 60 61 62 65 66 66 67 63 56 55 55 63 65 68
55 57 62 69 74 79 85 82 81 83 84 82 76 83 81 84 79 78 79 78 76 78 78 78 75 66 65 62 71 70 70 66 67 62 66 68 68 68 70 68 60 57 50 55 60 63 69 71 71
53 55 61 67 73 78 87 90 87 90 92 83 84 83 90 88 87 82 76 83 83 83 84 80 77 74 73 75 76 75 74 77 75 70 73 73 72 72 71 74 72 69 68 68 57 64 67 73 76
51 54 57 65 72 82 89 93 94 96 95 89 93 83 92 94 93 89 79 80 80 80 78 77 77 79 76 77 78 78 79 80 81 80 80 75 75 73 73 75 76 74 75 78 79 84 85 85 80
50 50 52 56 61 69 78 82 91 95 98 97 86 89 94 96 94 90 85 82 82 81 81 80 80 81 81 81 83 84 84 84 84 86 84 78 72 77 79 78 80 78 84 88 90 87 84 82 81
47 46 47 45 51 57 63 67 81 87 91 95 89 90 95 100 97 87 84 80 79 79 84 85 84 83 87 84 88 86 86 88 88 90 86 89 90 92 90 90 92 93 94 91 87 89 93 88 88
43 42 42 37 40 40 51 59 70 77 83 93 90 94 96 101 99 98 86 84 77 81 84 83 86 85 92 92 92 92 91 89 86 90 93 89 85 90 93 93 95 98 97 92 98 98 97 95 95
40 38 35 27 30 34 46 53 62 68 75 87 93 91 95 96 97 96 92 86 90 90 85 81 82 84 84 90 95 99 99 99 102 100 98 98 98 98 100 100 101 102 104 103 103 104 100 99 99
35 32 30 25 21 30 39 42 46 57 67 83 89 91 91 93 96 96 91 88 88 94 93 93 93 95 95 97 98 98 101 102 103 103 103 105 103 104 106 107 105 108 109 108 107 108 108 108 107
32 27 26 24 22 22 29 36 44 50 60 74 84 88 87 87 90 93 94 90 90 94 96 97 100 102 101 102 103 106 107 106 106 106 106 105 106 108 112 112 113 112 111 111 114 116 119 118 118
30 28 23 24 22 20 22 28 37 44 54 64 75 83 85 85 88 89 93 96 96 97 100 102 105 106 105 104 106 107 108 108 110 110 110 112 113 114 115 118 118 119 119 120 120 122 125 126 126
25 28 27 23 21 19 21 22 26 32 44 57 66 76 83 86 88 91 94 98 100 102 103 105 107 108 109 110 112 115 113 114 116 117 117 117 118 119 120 120 123 125 126 127 126 128 129 130 130
25 27 27 26 22 19 19 18 20 28 35 45 57 68 79 83 86 89 92 95 97 101 105 109 110 112 113 114 116 117 117 119 120 120 123 123 123 125 126 126 126 127 131 132 132 135 137 133 132
32 31 28 27 25 21 19 18 19 20 27 36 46 56 67 78 86 90 92 94 98 102 106 109 110 111 112 112 116 118 119 122 123 126 128 129 129 128 130 130 131 133 134 136 138 139 137 135 132
33 35 33 31 29 26 22 21 23 26 26 31 38 46 54 63 72 79 86 93 95 98 103 107 109 111 116 120 120 121 123 125 127 129 130 132 133 134 136 135 135 135 137 138 139 138 136 134 135
33 34 33 32 30 28 28 27 27 29 31 32 35 38 43 50 58 65 72 79 86 94 103 110 113 115 115 117 119 121 124 126 129 131 132 134 134 134 134 134 133 133 134 135 136 137 137 137 137
33 33 32 30 29 30 30 31 32 32 33 35 37 39 42 47 52 57 62 67 73 79 84 89 94 100 105 108 111 114 117 120 121 121 122 123 124 125 128 129 130 131 133 135 137 137 136 135 132
31 30 29 29 26 24 22 24 23 22 25 28 31 35 39 45 51 57 63 68 74 79 84 88 93 97 100 104 108 111 115 117 119 122 124 125 124 125 126 128 129 130 129 128 127 126 125 122 119
Wind_Direction
235 239 236 228 224 220 230 232 229 225 216 217 220 226 232 242 281 279 253 236 215 239 256 269 291 265 247 240 243 247 253 259 265 269 268 264 262 258 253 257 261 262 270 277 281 285 289 295 300
236 238 243 236 225 219 227 235 230 228 229 226 213 225 210 250 277 264 267 224 212 214 229 262 282 265 260 252 238 243 257 256 262 266 273 270 270 266 265 262 265 272 275 279 283 286 288 289 291
241 240 241 239 231 230 228 235 229 229 234 237 227 217 212 227 265 249 254 250 258 233 206 250 254 262 275 267 245 247 251 253 253 263 269 274 273 267 265 262 265 271 275 279 282 282 282 284 286
240 240 240 241 238 233 238 234 235 232 236 239 230 228 227 231 240 263 260 263 258 255 242 247 258 269 270 261 249 239 243 247 256 277 267 282 286 279 269 267 267 269 269 276 283 283 281 280 279
246 246 242 243 238 236 237 241 238 237 233 231 230 241 248 254 245 246 256 260 252 249 244 247 254 260 259 263 253 256 255 270 265 269 275 277 283 279 273 272 267 269 267 278 286 285 282 284 288
248 249 252 244 236 235 240 239 243 240 239 241 241 249 253 254 239 246 258 260 253 248 247 252 259 264 267 258 247 245 266 273 276 277 279 279 277 278 274 270 267 273 275 277 280 282 284 285 287
247 250 251 248 240 234 241 243 238 242 240 246 246 243 248 256 252 252 268 268 244 250 256 260 266 274 270 272 264 260 266 275 278 279 281 281 282 280 276 271 271 273 274 277 280 283 284 285 286
248 248 249 251 250 238 235 241 239 239 242 243 247 248 244 242 251 241 240 238 247 263 267 260 258 258 257 260 264 264 269 277 276 277 280 278 278 277 278 277 277 278 277 279 282 283 282 282 284
254 254 253 254 251 250 242 239 238 241 240 244 242 245 246 244 242 239 238 236 258 271 274 264 268 267 265 266 266 268 268 268 272 274 275 276 276 272 274 275 275 275 277 280 281 282 283 285 286
258 257 255 255 255 250 248 240 237 239 238 241 245 242 242 241 244 243 244 246 264 269 272 270 269 266 268 266 270 272 273 276 276 274 273 275 275 275 276 277 277 277 279 280 282 285 286 287 287
260 260 259 257 256 256 251 247 242 243 239 238 241 243 240 240 237 240 245 248 252 260 258 259 265 265 268 267 270 269 269 272 275 273 272 272 274 275 276 278 279 280 280 281 283 284 286 286 284
259 258 259 259 259 259 256 249 245 244 244 242 237 242 241 242 243 243 245 251 254 258 261 260 259 260 262 262 260 267 270 269 269 269 270 274 276 277 277 278 279 280 281 283 283 284 285 285 286
264 262 260 259 259 257 256 251 246 243 242 242 239 238 239 244 245 246 247 249 254 256 256 256 261 264 261 258 262 264 266 264 266 267 271 274 278 281 283 284 286 290 290 288 284 287 286 287 287
269 266 263 259 256 255 254 251 245 240 239 241 238 240 239 240 242 243 244 247 247 250 252 256 260 260 259 262 265 264 266 264 266 263 268 273 278 279 280 281 283 284 281 281 281 280 283 285 281
273 271 267 262 256 253 250 248 247 247 242 238 243 237 238 240 242 243 247 247 248 250 254 257 258 261 260 263 266 265 264 266 266 268 270 273 276 278 278 284 284 281 277 278 268 278 281 284 283
278 277 271 267 259 251 248 246 243 241 242 239 238 236 238 236 240 242 241 244 246 250 253 254 257 262 263 263 267 268 268 269 270 270 272 275 276 282 283 284 283 282 279 280 278 280 281 282 283
283 282 282 274 260 252 249 243 241 237 239 238 237 235 238 239 241 244 242 244 245 248 250 251 250 251 258 260 261 264 268 269 271 272 273 276 278 278 277 277 278 277 279 284 283 284 285 284 284
288 291 292 276 260 251 247 243 240 234 234 237 233 234 236 237 239 243 246 248 249 250 249 251 251 252 253 256 259 263 263 265 266 268 271 271 274 275 278 279 282 282 283 281 283 285 285 285 285
293 297 300 284 261 258 251 245 236 233 230 233 231 230 233 237 236 240 243 247 249 253 254 253 258 258 258 259 261 261 265 267 268 269 270 271 273 274 276 277 280 280 281 279 279 283 283 284 284
296 300 308 295 267 245 250 250 242 234 230 230 231 231 233 234 237 241 243 241 246 249 252 254 254 256 257 257 260 264 266 267 269 271 273 274 275 275 277 277 278 277 278 278 277 279 280 281 283
297 303 311 307 279 259 248 246 248 237 232 231 233 232 233 236 237 240 243 247 249 251 254 255 255 257 258 260 262 264 265 267 268 270 272 273 273 274 276 277 277 278 278 279 280 280 282 282 281
295 300 307 311 303 280 268 261 245 240 237 234 234 234 235 237 240 242 244 245 248 252 254 256 259 259 260 261 262 264 266 268 269 270 271 273 273 275 277 277 277 277 279 281 282 283 284 284 283
297 295 298 307 310 303 281 266 263 252 243 237 236 237 238 239 242 244 246 247 248 251 254 256 258 261 263 264 265 267 269 270 271 272 273 275 274 274 276 278 279 280 281 282 282 282 283 284 285
292 291 294 295 302 309 298 287 273 260 252 245 241 239 240 240 241 244 245 247 248 251 253 257 261 263 264 266 267 269 271 272 272 273 272 273 274 276 277 279 280 280 280 281 281 282 283 284 285
289 287 287 289 289 294 296 296 280 268 261 250 247 245 243 246 246 247 249 250 252 254 256 257 259 261 264 266 269 271 273 273 273 274 275 276 278 278 278 278 278 279 280 281 282 283 285 286 287
288 289 288 292 294 288 287 284 279 269 265 261 256 250 248 250 251 252 252 252 253 255 257 259 261 264 265 268 270 271 271 271 273 275 276 277 278 277 277 279 280 280 282 283 284 286 286 286 287
282 283 286 287 291 292 287 276 272 268 261 259 259 260 259 257 258 260 260 258 259 259 257 260 263 265 266 267 269 271 272 273 274 275 276 277 278 279 281 282 283 284 285 285 286 285 285 286 286
282 283 281 279 280 281 279 277 270 270 268 267 265 264 264 265 266 266 266 265 264 264 262 262 264 266 268 269 270 271 272 273 273 274 275 276 277 278 279 280 280 281 281 281 281 282 282 282 283
283 284 283 282 280 275 272 273 273 278 281 282 282 280 277 273 270 268 266 264 264 265 265 266 267 268 268 269 270 271 272 272 273 274 275 277 277 278 278 278 278 279 279 279 279 279 280 281 283
277 280 285 288 286 283 281 273 281 281 280 277 277 278 281 280 276 272 270 269 269 269 269 269 269 269 269 270 270 271 272 274 276 277 277 276 276 275 275 275 275 276 277 278 280 280 281 282 282
Height
10934 10937 10940 10947 10951 10957 10957 10958 10960 10965 10966 10968 10967 10969 10969 10971 10972 10974 10974 10973 10975 10975 10978 10978 10979 10978 10979 10980 10982 10983 10984 10984 10984 10985 10985 10985 10984 10983 10983 10983 10982 10981 10981 10980 10980 10979 10978 10978 10976
10928 10932 10936 10942 10946 10953 10952 10953 10959 10960 10961 10962 10966 10968 10967 10969 10970 10971 10973 10973 10974 10974 10974 10977 10977 10977 10977 10977 10979 10982 10982 10983 10983 10983 10983 10982 10982 10981 10981 10980 10979 10979 10979 10978 10977 10976 10975 10975 10973
10922 10927 10930 10936 10944 10946 10948 10950 10954 10956 10957 10959 10961 10963 10965 10966 10968 10970 10971 10973 10974 10975 10973 10973 10974 10974 10976 10976 10976 10978 10979 10980 10980 10980 10979 10979 10978 10978 10977 10976 10976 10976 10975 10975 10973 10973 10971 10970 10969
10915 10919 10924 10929 10937 10943 10943 10946 10950 10951 10952 10955 10956 10958 10962 10963 10965 10967 10968 10970 10972 10972 10971 10970 10970 10970 10971 10971 10972 10973 10974 10975 10975 10976 10976 10976 10975 10974 10973 10972 10971 10970 10970 10969 10968 10968 10967 10965 10963
10910 10911 10915 10922 10930 10934 10936 10940 10943 10945 10947 10951 10953 10954 10956 10958 10961 10963 10966 10966 10966 10965 10965 10965 10964 10965 10967 10968 10968 10969 10969 10970 10970 10970 10970 10971 10970 10969 10968 10967 10965 10964 10965 10964 10964 10963 10962 10961 10959
10903 10905 10904 10910 10920 10925 10926 10933 10936 10938 10942 10946 10946 10950 10951 10956 10957 10958 10959 10961 10959 10959 10959 10959 10958 10959 10961 10963 10963 10962 10963 10964 10964 10964 10964 10965 10964 10964 10962 10960 10960 10959 10959 10958 10957 10956 10955 10954 10953
10896 10897 10896 10899 10904 10916 10918 10924 10927 10930 10938 10940 10939 10941 10946 10949 10949 10951 10951 10951 10952 10952 10951 10951 10952 10953 10955 10955 10956 10957 10956 10956 10956 10955 10956 10956 10956 10956 10955 10954 10953 10953 10951 10950 10949 10949 10948 10947 10946
10889 10889 10888 10889 10891 10903 10911 10913 10920 10924 10928 10928 10932 10935 10940 10941 10942 10944 10943 10944 10944 10944 10944 10946 10946 10949 10950 10948 10947 10948 10948 10947 10947 10946 10946 10946 10947 10947 10946 10946 10946 10945 10944 10942 10941 10940 10939 10937 10936
10879 10879 10878 10876 10879 10885 10898 10901 10908 10911 10918 10920 10926 10929 10931 10934 10936 10937 10936 10933 10936 10936 10935 10938 10939 10940 10940 10940 10940 10941 10940 10938 10939 10938 10937 10936 10937 10937 10937 10937 10937 10936 10935 10932 10930 10930 10929 10927 10926
10869 10869 10866 10864 10862 10868 10880 10892 10899 10899 10905 10911 10913 10916 10920 10922 10924 10926 10926 10925 10926 10926 10929 10929 10928 10928 10928 10930 10929 10928 10927 10928 10927 10926 10926 10926 10927 10927 10927 10927 10927 10925 10923 10921 10920 10920 10919 10917 10915
10859 10855 10853 10851 10846 10857 10866 10876 10884 10883 10893 10897 10896 10901 10908 10912 10915 10916 10913 10917 10918 10918 10918 10920 10919 10919 10919 10920 10919 10918 10918 10920 10917 10914 10914 10914 10916 10916 10916 10916 10915 10914 10912 10911 10911 10910 10909 10907 10904
10847 10842 10841 10834 10838 10841 10848 10863 10867 10869 10875 10884 10886 10890 10893 10897 10901 10903 10903 10904 10904 10906 10910 10910 10907 10910 10910 10911 10907 10907 10907 10909 10908 10903 10902 10903 10905 10906 10905 10905 10904 10902 10900 10900 10899 10898 10896 10893 10891
10832 10828 10829 10822 10825 10825 10821 10836 10851 10854 10855 10855 10866 10874 10878 10884 10892 10891 10888 10891 10892 10893 10896 10896 10897 10901 10899 10899 10902 10899 10896 10898 10896 10891 10893 10895 10893 10893 10892 10893 10892 10891 10889 10887 10883 10885 10881 10878 10875
10815 10813 10811 10808 10807 10809 10803 10814 10822 10824 10833 10840 10853 10854 10868 10872 10869 10872 10875 10875 10874 10872 10879 10885 10885 10886 10886 10886 10885 10885 10884 10883 10884 10884 10884 10882 10883 10883 10881 10880 10880 10880 10878 10875 10870 10871 10868 10864 10861
10798 10796 10792 10788 10786 10787 10781 10786 10802 10803 10803 10833 10828 10846 10842 10851 10851 10853 10859 10859 10862 10865 10868 10873 10872 10871 10872 10872 10868 10871 10870 10868 10868 10870 10869 10871 10869 10868 10866 10865 10863 10863 10861 10862 10857 10856 10853 10851 10848
10781 10777 10772 10763 10762 10758 10762 10769 10776 10777 10782 10805 10801 10830 10826 10831 10832 10835 10842 10846 10849 10851 10856 10857 10857 10855 10856 10854 10854 10852 10853 10853 10854 10855 10856 10854 10854 10854 10850 10849 10846 10847 10845 10843 10841 10842 10840 10836 10832
10764 10758 10750 10742 10737 10736 10739 10749 10749 10755 10756 10769 10802 10805 10806 10806 10809 10816 10827 10832 10838 10843 10845 10842 10842 10843 10844 10843 10841 10840 10841 10841 10841 10840 10840 10840 10840 10836 10834 10831 10828 10827 10827 10826 10821 10820 10820 10818 10815
10747 10741 10732 10724 10719 10719 10721 10728 10725 10733 10747 10754 10779 10786 10788 10788 10790 10796 10807 10815 10822 10824 10827 10825 10828 10831 10833 10830 10829 10829 10827 10827 10827 10825 10826 10824 10822 10819 10817 10814 10811 10807 10806 10805 10801 10798 10797 10798 10796
10734 10728 10718 10710 10707 10707 10709 10711 10711 10718 10734 10741 10756 10759 10765 10771 10785 10789 10795 10800 10804 10803 10805 10808 10811 10815 10813 10815 10812 10808 10808 10809 10808 10809 10812 10808 10808 10805 10802 10798 10796 10791 10786 10785 10783 10779 10779 10780 10777
10723 10718 10710 10703 10700 10697 10696 10699 10701 10711 10722 10727 10738 10748 10753 10761 10769 10773 10776 10779 10783 10787 10792 10795 10794 10795 10794 10792 10791 10791 10791 10791 10791 10791 10792 10791 10789 10785 10782 10777 10773 10769 10766 10761 10759 10756 10756 10756 10756
10713 10709 10704 10699 10696 10693 10689 10691 10696 10704 10713 10719 10727 10734 10742 10747 10755 10761 10770 10774 10776 10774 10776 10774 10773 10774 10776 10775 10774 10774 10773 10775 10775 10776 10775 10770 10767 10763 10759 10753 10749 10746 10743 10739 10735 10732 10731 10731 10730
10706 10703 10699 10695 10693 10692 10691 10692 10691 10697 10704 10709 10716 10724 10733 10742 10752 10757 10758 10760 10760 10759 10757 10755 10756 10758 10758 10758 10758 10756 10755 10755 10754 10753 10750 10748 10744 10740 10734 10729 10725 10720 10717 10714 10711 10706 10701 10699 10700
10699 10698 10696 10693 10691 10692 10691 10690 10688 10694 10696 10702 10709 10717 10727 10734 10740 10744 10745 10744 10743 10744 10744 10742 10739 10738 10738 10737 10737 10735 10733 10732 10731 10730 10727 10723 10720 10717 10710 10702 10699 10697 10693 10687 10683 10676 10671 10667 10664
10695 10691 10691 10692 10691 10691 10688 10687 10687 10689 10691 10695 10701 10708 10714 10720 10724 10726 10728 10727 10729 10728 10727 10725 10723 10721 10719 10718 10715 10712 10712 10710 10709 10706 10702 10699 10694 10691 10687 10682 10673 10666 10662 10659 10655 10648 10644 10640 10636
10691 10689 10688 10688 10688 10689 10687 10687 10685 10683 10683 10688 10693 10698 10702 10706 10710 10713 10716 10717 10717 10716 10713 10709 10706 10704 10701 10700 10697 10695 10692 10686 10679 10675 10672 10670 10665 10660 10655 10654 10650 10642 10633 10628 10625 10618 10611 10607 10605
10684 10682 10682 10682 10683 10684 10685 10684 10683 10683 10682 10683 10684 10686 10689 10691 10694 10696 10698 10700 10699 10697 10694 10692 10690 10688 10687 10683 10676 10669 10664 10658 10653 10648 10643 10638 10637 10635 10629 10625 10618 10610 10603 10597 10590 10586 10580 10575 10571
10679 10675 10676 10676 10676 10677 10678 10678 10677 10677 10678 10678 10679 10678 10679 10680 10681 10680 10681 10681 10681 10678 10677 10675 10671 10666 10660 10654 10649 10646 10641 10635 10629 10622 10617 10613 10605 10600 10593 10587 10582 10576 10572 10565 10558 10553 10548 10544 10540
10672 10670 10669 10670 10670 10671 10670 10670 10670 10669 10670 10670 10672 10673 10673 10673 10672 10670 10667 10665 10662 10658 10653 10648 10644 10642 10638 10633 10627 10622 10616 10609 10603 10598 10591 10585 10582 10575 10569 10563 10558 10552 10544 10536 10528 10522 10516 10513 10509
10664 10662 10662 10662 10663 10663 10663 10662 10662 10663 10664 10664 10664 10662 10661 10659 10656 10653 10648 10644 10639 10635 10631 10628 10625 10620 10614 10609 10603 10596 10589 10580 10574 10571 10565 10559 10555 10547 10540 10533 10529 10523 10516 10507 10498 10491 10486 10483 10478
10657 10656 10655 10653 10654 10655 10657 10655 10657 10656 10656 10655 10653 10651 10648 10645 10641 10637 10631 10626 10620 10616 10611 10607 10602 10597 10592 10585 10577 10571 10563 10556 10549 10540 10532 10526 10524 10521 10515 10509 10503 10493 10485 10478 10469 10459 10453 10450 10446